Weather History for Olean, NY

Change the Weather History Date:

Thursday, November 14, 2013

  Actual Average (KBFD) Record (KBFD)
Temperature  
Mean Temperature 36 °F 38 °F  
Max Temperature 44 °F 46 °F 64 °F (1989)
Min Temperature 28 °F 30 °F 12 °F (1986)
Degree Days  
Heating Degree Days 29 23  
Month to date heating degree days 287  
Since 1 July heating degree days 1280  
Cooling Degree Days 0 0  
Month to date cooling degree days 0  
Year to date cooling degree days 193  
Moisture  
Dew Point 14 °F    
Average Humidity 44    
Maximum Humidity 55    
Minimum Humidity 29    
Precipitation  
Precipitation 0.00 in 0.13 in 1.20 in (1972)
Month to date precipitation 1.64  
Year to date precipitation 38.94  
Sea Level Pressure  
Sea Level Pressure 30.09 in    
Wind  
Wind Speed 10 mph (SW)    
Max Wind Speed 15 mph    
Max Gust Speed 22 mph    
Visibility 10 miles    
Events      
T = Trace of Precipitation, MM = Missing Value Source: NWS Daily Summary

Daily Weather History Graph

Daily Weather History Graph

Search for Another Location

Airport:

Trip Planner

Search our weather history database for the weather conditions in past years. The results will help you decide how hot, cold, wet, or windy it might be!

Date:

Astronomy

Nov. 14, 2013 Rise Set
Actual Time 7:03 AM EST 4:52 PM EST
Civil Twilight 6:32 AM EST 5:22 PM EST
Nautical Twilight 5:59 AM EST 5:56 PM EST
Astronomical Twilight 5:25 AM EST 6:29 PM EST
Moon 3:15 PM EST (11/14) 3:53 AM EST (11/14)
Length of Visible Light 10h 49m
Length of Day
9h 49m
Waxing Gibbous, 91% of the Moon is Illuminated
Nov 14
Waxing Gibbous
Nov 17
Full
Nov 25
Last Quarter
Dec 2
New
Dec 9
First Quarter

Hourly Weather History & Observations

Time (EST) Temp. Windchill Dew Point Humidity Pressure Visibility Wind Dir Wind Speed Gust Speed Precip Events Conditions
12:15 AM 28.4 °F 19.1 °F 14.0 °F 55% 30.11 in 10.0 mi WSW 10.4 mph 17.3 mph N/A   Clear
12:35 AM 28.4 °F 18.5 °F 14.0 °F 55% 30.10 in 10.0 mi WSW 11.5 mph 17.3 mph N/A   Clear
12:55 AM 28.4 °F 17.0 °F 12.2 °F 51% 30.09 in 10.0 mi WSW 15.0 mph 20.7 mph N/A   Clear
1:15 AM 28.4 °F 18.0 °F 12.2 °F 51% 30.09 in 10.0 mi WSW 12.7 mph 20.7 mph N/A   Clear
1:35 AM 28.4 °F 19.7 °F 12.2 °F 51% 30.09 in 10.0 mi WSW 9.2 mph 18.4 mph N/A   Clear
1:55 AM 28.4 °F 19.7 °F 12.2 °F 51% 30.09 in 10.0 mi WSW 9.2 mph 16.1 mph N/A   Clear
2:15 AM 28.4 °F 18.5 °F 10.4 °F 47% 30.09 in 10.0 mi WSW 11.5 mph 20.7 mph N/A   Clear
2:35 AM 28.4 °F 18.0 °F 10.4 °F 47% 30.09 in 10.0 mi WSW 12.7 mph 19.6 mph N/A   Clear
2:55 AM 28.4 °F 17.5 °F 10.4 °F 47% 30.09 in 10.0 mi WSW 13.8 mph 20.7 mph N/A   Clear
3:15 AM 28.4 °F 20.4 °F 10.4 °F 47% 30.09 in 10.0 mi WSW 8.1 mph 17.3 mph N/A   Clear
3:35 AM 28.4 °F 20.4 °F 10.4 °F 47% 30.10 in 10.0 mi WSW 8.1 mph - N/A   Clear
3:55 AM 28.4 °F 18.0 °F 10.4 °F 47% 30.09 in 10.0 mi WSW 12.7 mph 21.9 mph N/A   Clear
4:15 AM 30.2 °F 21.9 °F 10.4 °F 44% 30.09 in 10.0 mi WSW 9.2 mph 20.7 mph N/A   Clear
4:35 AM 30.2 °F 20.2 °F 10.4 °F 44% 30.10 in 10.0 mi WSW 12.7 mph 18.4 mph N/A   Clear
4:55 AM 30.2 °F 22.6 °F 10.4 °F 44% 30.10 in 10.0 mi WSW 8.1 mph - N/A   Clear
5:15 AM 30.2 °F 21.9 °F 10.4 °F 44% 30.09 in 10.0 mi WSW 9.2 mph 20.7 mph N/A   Clear
5:35 AM 30.2 °F 21.3 °F 10.4 °F 44% 30.10 in 10.0 mi WSW 10.4 mph 17.3 mph N/A   Clear
5:55 AM 30.2 °F 20.8 °F 10.4 °F 44% 30.10 in 10.0 mi WSW 11.5 mph 16.1 mph N/A   Clear
6:15 AM 30.2 °F 21.9 °F 10.4 °F 44% 30.10 in 10.0 mi WSW 9.2 mph 20.7 mph N/A   Clear
6:35 AM 30.2 °F 21.9 °F 12.2 °F 47% 30.10 in 10.0 mi WSW 9.2 mph 16.1 mph N/A   Clear
6:55 AM 30.2 °F 23.4 °F 12.2 °F 47% 30.11 in 10.0 mi West 6.9 mph 17.3 mph N/A   Clear
7:15 AM 30.2 °F 23.4 °F 12.2 °F 47% 30.11 in 10.0 mi WSW 6.9 mph - N/A   Clear
7:35 AM 30.2 °F 21.9 °F 12.2 °F 47% 30.11 in 10.0 mi WSW 9.2 mph - N/A   Clear
7:55 AM 30.2 °F 21.3 °F 12.2 °F 47% 30.11 in 10.0 mi WSW 10.4 mph 17.3 mph N/A   Clear
8:15 AM 30.2 °F 21.9 °F 14.0 °F 51% 30.12 in 10.0 mi WSW 9.2 mph 19.6 mph N/A   Clear
8:35 AM 30.2 °F 20.8 °F 14.0 °F 51% 30.12 in 10.0 mi WSW 11.5 mph 18.4 mph N/A   Clear
8:55 AM 30.2 °F 23.4 °F 14.0 °F 51% 30.12 in 10.0 mi WSW 6.9 mph - N/A   Clear
9:15 AM 30.2 °F 22.6 °F 14.0 °F 51% 30.12 in 10.0 mi WSW 8.1 mph 17.3 mph N/A   Clear
9:35 AM 32.0 °F 25.6 °F 15.8 °F 51% 30.11 in 10.0 mi WSW 6.9 mph - N/A   Clear
9:55 AM 32.0 °F 24.8 °F 17.6 °F 55% 30.11 in 10.0 mi SW 8.1 mph - N/A   Clear
10:15 AM 32.0 °F 24.2 °F 17.6 °F 55% 30.11 in 10.0 mi SW 9.2 mph 18.4 mph N/A   Clear
10:35 AM 32.0 °F 25.6 °F 17.6 °F 55% 30.11 in 10.0 mi SW 6.9 mph - N/A   Clear
10:55 AM 33.8 °F 27.0 °F 17.6 °F 52% 30.11 in 10.0 mi WSW 8.1 mph 17.3 mph N/A   Clear
11:15 AM 33.8 °F 26.4 °F 17.6 °F 52% 30.10 in 10.0 mi SW 9.2 mph 16.1 mph N/A   Clear
11:35 AM 35.6 °F 28.6 °F 17.6 °F 48% 30.09 in 10.0 mi WSW 9.2 mph 16.1 mph N/A   Clear
11:55 AM 35.6 °F 29.9 °F 17.6 °F 48% 30.09 in 10.0 mi WSW 6.9 mph - N/A   Clear
12:15 PM 37.4 °F 30.8 °F 15.8 °F 41% 30.08 in 10.0 mi WSW 9.2 mph - N/A   Clear
12:35 PM 37.4 °F 29.3 °F 15.8 °F 41% 30.08 in 10.0 mi SW 12.7 mph 18.4 mph N/A   Clear
12:55 PM 39.2 °F 33.6 °F 15.8 °F 39% 30.08 in 10.0 mi SW 8.1 mph - N/A   Clear
1:15 PM 41.0 °F 35.2 °F 17.6 °F 39% 30.08 in 10.0 mi SW 9.2 mph 18.4 mph N/A   Clear
1:35 PM 41.0 °F 35.2 °F 14.0 °F 33% 30.08 in 10.0 mi WSW 9.2 mph 17.3 mph N/A   Clear
1:55 PM 42.8 °F 40.1 °F 14.0 °F 31% 30.07 in 10.0 mi WSW 4.6 mph 16.1 mph N/A   Clear
2:15 PM 42.8 °F 38.6 °F 14.0 °F 31% 30.06 in 10.0 mi SW 6.9 mph 17.3 mph N/A   Clear
2:35 PM 42.8 °F 35.8 °F 14.0 °F 31% 30.06 in 10.0 mi SW 13.8 mph 18.4 mph N/A   Clear
2:55 PM 42.8 °F 37.0 °F 14.0 °F 31% 30.06 in 10.0 mi SW 10.4 mph - N/A   Clear
3:15 PM 44.6 °F 40.2 °F 14.0 °F 29% 30.06 in 10.0 mi SW 8.1 mph - N/A   Clear
3:35 PM 44.6 °F 39.2 °F 14.0 °F 29% 30.06 in 10.0 mi SW 10.4 mph 16.1 mph N/A   Clear
3:55 PM 42.8 °F 39.3 °F 14.0 °F 31% 30.06 in 10.0 mi SW 5.8 mph - N/A   Clear
4:15 PM 42.8 °F 37.5 °F 14.0 °F 31% 30.05 in 10.0 mi SW 9.2 mph - N/A   Clear
4:35 PM 41.0 °F 34.3 °F 14.0 °F 33% 30.05 in 10.0 mi SW 11.5 mph 17.3 mph N/A   Clear
4:55 PM 39.2 °F 33.0 °F 14.0 °F 36% 30.05 in 10.0 mi SW 9.2 mph - N/A   Clear
5:15 PM 39.2 °F 33.6 °F 14.0 °F 36% 30.06 in 10.0 mi SW 8.1 mph - N/A   Clear
5:35 PM 37.4 °F 30.3 °F 14.0 °F 38% 30.06 in 10.0 mi SW 10.4 mph - N/A   Clear
5:55 PM 37.4 °F 30.8 °F 14.0 °F 38% 30.07 in 10.0 mi SW 9.2 mph - N/A   Clear
6:15 PM 37.4 °F 32.8 °F 14.0 °F 38% 30.07 in 10.0 mi SW 5.8 mph - N/A   Clear
6:35 PM 35.6 °F 28.0 °F 14.0 °F 41% 30.07 in 10.0 mi SW 10.4 mph - N/A   Clear
6:55 PM 37.4 °F 30.3 °F 15.8 °F 41% 30.07 in 10.0 mi SW 10.4 mph 17.3 mph N/A   Clear
7:15 PM 35.6 °F 28.0 °F 15.8 °F 44% 30.07 in 10.0 mi SW 10.4 mph - N/A   Clear
7:35 PM 35.6 °F 28.0 °F 15.8 °F 44% 30.07 in 10.0 mi SW 10.4 mph - N/A   Clear
7:55 PM 35.6 °F 27.5 °F 15.8 °F 44% 30.07 in 10.0 mi SW 11.5 mph - N/A   Clear
8:15 PM 35.6 °F 28.6 °F 15.8 °F 44% 30.07 in 10.0 mi SW 9.2 mph 16.1 mph N/A   Clear
8:35 PM 35.6 °F 29.2 °F 15.8 °F 44% 30.06 in 10.0 mi SW 8.1 mph - N/A   Clear
8:55 PM 35.6 °F 29.9 °F 15.8 °F 44% 30.07 in 10.0 mi WSW 6.9 mph - N/A   Clear
9:15 PM 35.6 °F 29.2 °F 15.8 °F 44% 30.07 in 10.0 mi WSW 8.1 mph - N/A   Clear
9:35 PM 35.6 °F 29.2 °F 15.8 °F 44% 30.07 in 10.0 mi WSW 8.1 mph - N/A   Clear
9:55 PM 35.6 °F 29.2 °F 17.6 °F 48% 30.08 in 10.0 mi SW 8.1 mph - N/A   Clear
10:15 PM 35.6 °F 29.2 °F 15.8 °F 44% 30.08 in 10.0 mi SW 8.1 mph - N/A   Clear
10:35 PM 35.6 °F 29.9 °F 15.8 °F 44% 30.08 in 10.0 mi SW 6.9 mph - N/A   Clear
10:55 PM 35.6 °F 29.2 °F 15.8 °F 44% 30.07 in 10.0 mi SW 8.1 mph - N/A   Clear
11:15 PM 35.6 °F 29.9 °F 15.8 °F 44% 30.08 in 10.0 mi SW 6.9 mph - N/A   Clear
11:35 PM 35.6 °F 29.9 °F 15.8 °F 44% 30.08 in 10.0 mi SW 6.9 mph - N/A   Clear
11:55 PM 35.6 °F 31.7 °F 15.8 °F 44% 30.08 in 10.0 mi WSW 4.6 mph - N/A   Clear